Weather History for VTSP - October, 2011

Change the Weather History Date:

Sunday, October 30, 2011

  Actual Average Record
Temperature  
Mean Temperature 82 °F -  
Max Temperature 89 °F 88 °F 95 °F (2002)
Min Temperature 76 °F 75 °F 71 °F (2013)
Cooling Degree Days 18    
Growing Degree Days 32 (Base 50)    
Moisture  
Dew Point 74 °F    
Average Humidity 81    
Maximum Humidity 94    
Minimum Humidity 57    
Precipitation  
Precipitation 0.20 in 0.25 in - ()
Sea Level Pressure  
Sea Level Pressure 29.75 in    
Wind  
Wind Speed 4 mph ()    
Max Wind Speed 21 mph    
Max Gust Speed 32 mph    
Visibility 5.0 miles    
Events Rain    
Averages and records for this station are not official NWS values.
T = Trace of Precipitation, MM = Missing Value Source: Averaged Metar Reports

Daily Weather History Graph

Daily Weather History Graph

Search for Another Location

Airport or City:

Trip Planner

Search our weather history database for the weather conditions in past years. The results will help you decide how hot, cold, wet, or windy it might be!

Date:

Astronomy

Oct. 30, 2011 Rise Set
Actual Time 6:14 AM ICT 6:05 PM ICT
Civil Twilight 5:53 AM ICT 6:27 PM ICT
Nautical Twilight 5:28 AM ICT 6:52 PM ICT
Astronomical Twilight 5:03 AM ICT 7:16 PM ICT
Moon 9:31 AM ICT (10/30) 9:32 PM ICT (10/30)
Length of Visible Light 12h 33m
Length of Day
11h 50m
Waxing Crescent, 16% of the Moon is Illuminated
Oct 30
Waxing Crescent
Nov 2
First Quarter
Nov 11
Full
Nov 18
Last Quarter
Nov 25
New

Hourly Weather History & Observations

Time (ICT) Temp. Heat Index Dew Point Humidity Pressure Visibility Wind Dir Wind Speed Gust Speed Precip Events Conditions
12:00 AM 78.8 °F - 73.4 °F 83% 29.77 in 5.6 mi ENE 3.5 mph - N/A   Mostly Cloudy
12:30 AM 78.8 °F - 73.4 °F 83% 29.77 in 5.6 mi ENE 3.5 mph - N/A   Mostly Cloudy
1:00 AM 79 °F - 75 °F 85% 29.75 in 7 mi Calm Calm - -   Scattered Clouds
1:00 AM 78.8 °F - 73.4 °F 83% 29.77 in 5.6 mi NNE 3.5 mph - N/A   Mostly Cloudy
3:00 AM 77.0 °F - 73.4 °F 89% 29.74 in 5.6 mi Calm Calm - N/A   Mostly Cloudy
4:00 AM 78.8 °F - 73.4 °F 83% 29.74 in 5.6 mi ENE 5.8 mph - N/A   Mostly Cloudy
4:30 AM - - - N/A% 29.74 in 1.9 mi ESE 5.8 mph - N/A Rain Rain
5:00 AM 77.0 °F - 75.2 °F 94% 29.74 in 4.3 mi Calm Calm - N/A   Mostly Cloudy
5:30 AM 77.0 °F - 73.4 °F 89% 29.74 in 5.6 mi Calm Calm - N/A   Mostly Cloudy
6:00 AM 77.0 °F - 73.4 °F 89% 29.74 in 5.6 mi Calm Calm - N/A   Mostly Cloudy
6:30 AM 77.0 °F - 73.4 °F 89% 29.74 in 5.6 mi Calm Calm - N/A   Mostly Cloudy
7:00 AM 78 °F - 76 °F 91% 29.75 in 6 mi Calm Calm - -   Partly Cloudy
7:00 AM 77.0 °F - 75.2 °F 94% 29.77 in 5.6 mi Calm Calm - N/A   Mostly Cloudy
7:30 AM 80.6 °F 86.2 °F 75.2 °F 84% 29.77 in 5.6 mi ENE 3.5 mph - N/A   Mostly Cloudy
8:00 AM 82.4 °F 88.2 °F 73.4 °F 74% 29.80 in 5.6 mi ENE 5.8 mph - N/A   Mostly Cloudy
8:30 AM 82.4 °F 89.5 °F 75.2 °F 79% 29.77 in 5.6 mi East 6.9 mph - N/A   Scattered Clouds
9:00 AM 84.2 °F 94.1 °F 77.0 °F 79% 29.77 in 5.6 mi ENE 9.2 mph - N/A   Scattered Clouds
9:30 AM 84.2 °F 92.3 °F 75.2 °F 74% 29.77 in 6.2 mi ENE 8.1 mph - N/A   Scattered Clouds
10:00 AM 86.0 °F 95.1 °F 75.2 °F 70% 29.77 in 6.2 mi East 10.4 mph - N/A   Scattered Clouds
10:30 AM 86.0 °F 95.1 °F 75.2 °F 70% 29.77 in 6.2 mi ENE 8.1 mph - N/A   Scattered Clouds
11:00 AM 86.0 °F 95.1 °F 75.2 °F 70% 29.77 in 6.2 mi ENE 10.4 mph - N/A   Scattered Clouds
11:30 AM 87.8 °F 97.6 °F 75.2 °F 66% 29.77 in 6.2 mi East 9.2 mph - N/A   Scattered Clouds
12:00 PM 87.8 °F 97.6 °F 75.2 °F 66% 29.77 in 6.2 mi East 10.4 mph - N/A   Scattered Clouds
12:30 PM 89.6 °F 98.2 °F 73.4 °F 59% 29.74 in 6.2 mi East 10.4 mph - N/A   Scattered Clouds
1:00 PM 89 °F - 76 °F 57% 29.73 in 6 mi East 13.8 mph - -   Partly Cloudy
1:00 PM 87.8 °F 95.6 °F 73.4 °F 62% 29.74 in 1.2 mi East 20.7 mph 32.2 mph N/A Rain Heavy Rain
1:30 PM 77.0 °F - 73.4 °F 89% 29.71 in 3.1 mi East 8.1 mph - N/A Rain Light Rain
2:00 PM 78.8 °F - 73.4 °F 83% 29.71 in 4.3 mi East 5.8 mph - N/A Rain Light Rain
2:30 PM 80.6 °F 86.2 °F 75.2 °F 84% 29.71 in 4.3 mi NE 6.9 mph - N/A   Mostly Cloudy
3:00 PM 82.4 °F 89.5 °F 75.2 °F 79% 29.68 in 4.3 mi ENE 8.1 mph - N/A   Mostly Cloudy
3:30 PM 80.6 °F 85.4 °F 73.4 °F 79% 29.68 in 4.3 mi ENE 6.9 mph - N/A   Mostly Cloudy
4:00 PM 82.4 °F 88.2 °F 73.4 °F 74% 29.71 in 4.3 mi East 6.9 mph - N/A   Mostly Cloudy
4:30 PM 80.6 °F 86.2 °F 75.2 °F 84% 29.71 in 4.3 mi East 6.9 mph - N/A   Mostly Cloudy
5:00 PM 80.6 °F 85.4 °F 73.4 °F 79% 29.74 in 4.3 mi ENE 3.5 mph - N/A   Mostly Cloudy
5:30 PM 78.8 °F - 75.2 °F 89% 29.74 in 4.3 mi Calm Calm - N/A   Mostly Cloudy
6:00 PM 78.8 °F - 75.2 °F 89% 29.74 in 4.3 mi NW 3.5 mph - N/A   Mostly Cloudy
6:30 PM 78.8 °F - 73.4 °F 83% 29.74 in 4.3 mi Variable 2.3 mph - N/A   Mostly Cloudy
7:00 PM 80 °F - 76 °F 85% 29.71 in 6 mi Calm Calm - -   Partly Cloudy
7:00 PM 77.0 °F - 75.2 °F 94% 29.77 in 4.3 mi Calm Calm - N/A   Mostly Cloudy
7:30 PM 77.0 °F - 75.2 °F 94% 29.77 in 4.3 mi Calm Calm - N/A   Mostly Cloudy
8:00 PM 78.8 °F - 73.4 °F 83% 29.77 in 4.3 mi Variable 3.5 mph - N/A   Mostly Cloudy
8:30 PM 78.8 °F - 73.4 °F 83% 29.80 in 4.3 mi NE 4.6 mph - N/A   Mostly Cloudy
9:00 PM 78.8 °F - 73.4 °F 83% 29.80 in 4.3 mi ENE 4.6 mph - N/A   Mostly Cloudy
9:30 PM 78.8 °F - 73.4 °F 83% 29.80 in 4.3 mi ENE 3.5 mph - N/A   Mostly Cloudy
10:00 PM 78.8 °F - 73.4 °F 83% 29.80 in 4.3 mi ENE 3.5 mph - N/A   Mostly Cloudy
10:30 PM 78.8 °F - 73.4 °F 83% 29.83 in - ENE 4.6 mph - N/A   Mostly Cloudy
11:00 PM 78.8 °F - 73.4 °F 83% 29.80 in 4.3 mi East 3.5 mph - N/A   Mostly Cloudy
11:30 PM 77.0 °F - 73.4 °F 89% 29.80 in 4.3 mi Calm Calm - N/A   Mostly Cloudy